EAGLE 2 (39436 NORAD) Tracking and Keplerian Element Data

This shows tracking and keplerian element data for the satellite.

Feedback or suggestion? Click here.




ElementValue
Catalog39436
NameEAGLE 2
Epoch Orbit24868
Epoch Day138.34627707
Epoch Year2018
RAAN274.5525
Inclination97.7009
Eccentricity0.0018818
Argument of Perigee286.4398
Mean Anonmoly133.6699
Mean Motion16.24208076
Decay Rate0.08053685
L11 39436U 13066W 18138.34627707 .08053685 26553-5 29454-2 0 9995
L22 39436 97.7009 274.5525 0018818 286.4398 133.6699 16.24208076248686



Live tracking and technical data element details for EAGLE 2 (NORAD 39436). EAGLE 2 can be tracked NOW for your location showing map with azimuth and elevation plus other details from your city location.







IsCatalogInMostPopularTable: catalog: 39436, numindb: 391
Update: records affected: 1



GetName: 39436 EAGLE 2

Hit Count: updated at: Fri, 02 Dec 2022 12:16:28 GMT